[[{"header":{"parameterUnit":"m.s-1","parameterCategory":1,"la1":30.2991,"la2":30.254,"lo1":-89.0895,"lo2":-89.0444,"dy":0.0017,"dx":0.0017,"nx":28,"ny":28,"refTime":"2023-08-04T03:00:00:Z","depth":0,"parameterNumber":2,"parameterNumberName":"U-component_of_WINDS"},"data":[0,0,0,0,0,0,0,0,0,0,0,0,0,0,0,0,0,0,0,0,0,0,0,0,0,0,0,0,0,0,0,0,0,0,0,0,0,0,0,0,0,0,0,0,0,0,0,0,0,0,0,0,0,0,0,0,0,0,2.8783,2.8783,0,2.8814,2.8814,2.8814,2.8809,2.8808,2.8808,2.8807,2.8838,2.8839,2.884,0,0,0,0,0,0,0,0,0,0,0,0,0,2.872,2.8722,2.8783,2.8783,2.8784,2.8814,2.8814,2.8814,2.8809,2.8808,2.8808,2.8807,2.8837,2.8839,2.884,0,0,0,0,0,0,0,0,0,0,0,0,0,2.8749,2.8722,2.8783,2.8785,2.8785,2.8814,2.8814,2.8815,2.8809,2.8808,2.8807,2.8807,2.8837,2.8839,2.8841,2.8869,0,0,2.8847,2.8848,0,0,0,0,0,0,0,0,2.8747,2.8751,2.8784,2.8784,2.8785,2.8807,2.8803,2.8833,2.8809,2.88,2.8807,2.8806,2.8828,2.8831,2.8838,2.8871,2.8872,2.8847,2.8848,2.8849,2.885,0,0,0,0,0,0,0,2.8745,2.875,2.8795,2.8784,2.8785,2.8784,2.8787,2.8809,2.8818,2.8801,2.88,2.8804,2.8828,2.8836,2.8839,2.8872,2.8847,2.8849,2.885,2.8851,2.8933,2.8934,0,0,0,0,0,0,2.8743,2.8748,2.8794,2.8796,2.8764,2.8786,2.8789,2.88,2.8818,2.882,2.8805,2.8804,2.8833,2.8837,2.884,2.8876,2.8849,2.8851,2.8852,2.8932,2.8933,2.8934,0,0,0,0,0,0,2.8742,2.8747,2.8793,2.8772,2.8778,2.8788,2.88,2.8802,2.881,2.8821,2.8823,2.8811,2.8833,2.8837,2.8863,2.8877,2.8852,2.8854,2.893,2.8932,2.8933,2.8947,0,0,0,0,0,0,2.874,2.8747,2.8757,2.8772,2.8779,2.8815,2.8801,2.8803,2.8813,2.8812,2.8828,2.8829,2.8832,2.886,2.8865,2.8879,2.8855,2.8929,2.8931,2.8933,2.8946,2.8949,2.8952,0,0,0,0,0,2.8738,2.8759,2.8758,2.8763,2.8792,2.8815,2.8819,2.8823,2.8814,2.8825,2.8833,2.8829,2.8875,2.8862,2.8868,2.8883,2.8928,2.8931,2.8933,2.8944,2.8948,2.8952,0,0,0,0,0,0,2.8744,2.8761,2.8759,2.8786,2.88,2.8814,2.8828,2.8827,2.8842,2.8841,2.8844,2.8848,2.8874,2.8881,2.8867,2.8913,2.89,2.8904,2.8907,2.8911,2.8914,2.8912,2.8857,0,0,0,0,0,2.8749,2.8766,2.878,2.8802,2.8809,2.8818,2.8828,2.883,2.8843,2.8849,2.8858,2.8872,2.889,2.8901,2.8917,2.8947,2.8951,2.8961,2.8964,2.8966,2.8969,2.8987,2.8992,2.8941,2.8941,2.8941,0,0,2.8758,2.877,2.878,2.8804,2.8815,2.8833,2.8822,2.8842,2.8856,2.8852,2.8877,2.8885,2.89,2.8928,2.8941,2.8935,2.8984,2.8969,2.8971,2.8973,2.899,2.8995,2.8999,2.8943,2.8942,2.8942,0,0,2.8785,2.8795,2.8816,2.8827,2.8844,2.885,2.8855,2.8871,2.8876,2.8901,2.8899,2.8916,2.8946,2.8958,2.8968,2.9002,2.9,2.9008,2.9024,2.9042,2.9046,2.905,2.9063,2.9068,2.9011,2.9011,2.9011,0,2.8795,2.8822,2.8827,2.8847,2.8858,2.8857,2.8879,2.8889,2.891,2.8918,2.8912,2.8951,2.8961,2.8993,2.9002,2.9009,2.9016,2.9006,2.9045,2.9049,2.9052,2.9065,2.907,2.9012,2.9012,2.9011,2.9011,0,2.8834,2.8853,2.8868,2.889,2.8903,2.8924,2.8932,2.8945,2.8947,2.8954,2.8981,2.8993,2.9013,2.9021,2.9022,2.9054,2.905,2.9044,2.9031,2.9058,2.907,2.9075,2.9013,2.9013,2.9012,2.9012,0,0,2.8864,2.889,2.8895,2.8906,2.8925,2.894,2.8962,2.8983,2.8994,2.901,2.9028,2.9055,2.9051,2.9062,2.9065,2.908,2.9109,2.9073,2.9073,2.908,2.9146,2.9151,2.9156,2.9108,2.9108,2.9109,2.9145,0,2.8893,2.8932,2.8938,2.8972,2.8991,2.8991,2.901,2.9025,2.9032,2.905,2.9059,2.9078,2.907,2.9077,2.9093,2.9102,2.9122,2.91,2.9126,2.9126,2.9122,2.9162,2.9167,2.92,2.915,2.9151,2.9151,0,2.8932,2.895,2.8986,2.9005,2.9013,2.903,2.9051,2.9067,2.9085,2.9089,2.9104,2.9105,2.9129,2.9116,2.9149,2.9134,2.9145,2.9152,2.9153,2.9155,2.914,2.9166,2.921,2.9216,2.9159,2.9158,2.9158,0,2.8951,2.8984,2.9011,2.902,2.9042,2.9055,2.9065,2.9081,2.9094,2.9112,2.9121,2.9141,2.9152,2.9169,2.9176,2.9166,2.921,2.9197,2.9215,2.9215,2.9223,2.9223,2.927,2.9231,2.9231,2.923,2.923,0,2.8983,2.9006,2.902,2.9036,2.9062,2.9069,2.9095,2.9104,2.912,2.9138,2.914,2.9157,2.9166,2.9186,2.9192,2.9219,2.9224,2.9229,2.9231,2.9229,2.9229,2.9236,2.9234,2.9232,2.9232,2.9231,2.9231,0,2.9009,2.9019,2.9048,2.9068,2.9074,2.9092,2.9109,2.9126,2.9134,2.9158,2.9164,2.9178,2.9201,2.9211,2.9238,2.9243,2.9275,2.9274,2.9269,2.9269,2.9287,2.9286,2.9341,2.935,2.9304,2.9305,2.9305,0,2.9028,2.9046,2.9069,2.9082,2.9092,2.9113,2.9127,2.9136,2.915,2.9172,2.9186,2.921,2.9229,2.9266,2.9278,2.93,2.93,2.9319,2.9304,2.9302,2.9302,2.9301,2.9303,2.9321,2.9322,2.9322,2.9322,0,2.9063,2.9068,2.9087,2.911,2.9127,2.9144,2.9162,2.9172,2.9184,2.92,2.9224,2.9239,2.9269,2.9292,2.9316,2.9326,2.9327,2.9327,2.9333,2.9331,2.9328,2.9331,2.9277,2.9326,2.9325,2.9325,2.9325,2.9325,2.9087,2.9103,2.9122,2.9145,2.9159,2.9176,2.9193,2.9205,2.9225,2.925,2.9254,2.928,2.9299,2.9331,2.9343,2.9364,2.9359,2.9367,2.9369,2.9371,2.9372,2.9325,2.9368,2.9368,2.9368,2.9368,2.9368,0,2.9122,2.9135,2.9155,2.9181,2.9199,2.9199,2.9218,2.9234,2.9257,2.9275,2.9294,2.9323,2.9347,2.9362,2.9386,2.94,2.9401,2.9406,2.9405,2.9408,2.9375,2.9368,2.9405,2.9405,2.9405,2.9405,2.9405,2.9405,2.9142,2.917,2.9178,2.9214,2.9227,2.9253,2.9265,2.9281,2.9295,2.9328,2.9347,2.9358,2.9375,2.9401,2.9423,2.9427,2.9436,2.9442,2.9445,2.9414,2.941,2.9406,2.94,2.9443,2.9443,2.9477,2.9477,2.9477]},{"header":{"parameterUnit":"m.s-1","parameterCategory":1,"la1":30.2991,"la2":30.254,"lo1":-89.0895,"lo2":-89.0444,"dy":0.0017,"dx":0.0017,"nx":28,"ny":28,"refTime":"2023-08-04T03:00:00:Z","depth":0,"parameterNumber":3,"parameterNumberName":"V-component_of_WINDS"},"data":[0,0,0,0,0,0,0,0,0,0,0,0,0,0,0,0,0,0,0,0,0,0,0,0,0,0,0,0,0,0,0,0,0,0,0,0,0,0,0,0,0,0,0,0,0,0,0,0,0,0,0,0,0,0,0,0,0,0,-2.0173,-2.0174,0,-2.024,-2.0241,-2.0242,-2.0262,-2.0261,-2.0261,-2.0261,-2.0328,-2.033,-2.0332,0,0,0,0,0,0,0,0,0,0,0,0,0,-2.0062,-2.0064,-2.0173,-2.0174,-2.0175,-2.024,-2.0241,-2.0242,-2.0262,-2.0261,-2.0261,-2.026,-2.0327,-2.033,-2.0333,0,0,0,0,0,0,0,0,0,0,0,0,0,-2.0118,-2.0064,-2.0173,-2.0192,-2.0195,-2.024,-2.0241,-2.0242,-2.0262,-2.0261,-2.0261,-2.026,-2.0327,-2.033,-2.0333,-2.0363,0,0,-2.0343,-2.0344,0,0,0,0,0,0,0,0,-2.0114,-2.0122,-2.0189,-2.0191,-2.0194,-2.0242,-2.0227,-2.0283,-2.0262,-2.0236,-2.0261,-2.026,-2.03,-2.0305,-2.0319,-2.0366,-2.0369,-2.0343,-2.0345,-2.0346,-2.0347,0,0,0,0,0,0,0,-2.011,-2.0119,-2.02,-2.019,-2.0193,-2.0198,-2.0205,-2.0237,-2.027,-2.0239,-2.024,-2.0248,-2.0301,-2.0316,-2.0321,-2.037,-2.0343,-2.0346,-2.0348,-2.0349,-2.0448,-2.0449,0,0,0,0,0,0,-2.0103,-2.0115,-2.0197,-2.0202,-2.0152,-2.02,-2.0209,-2.0227,-2.027,-2.0276,-2.0248,-2.0249,-2.0311,-2.0317,-2.0323,-2.0363,-2.0346,-2.0349,-2.0351,-2.0447,-2.0448,-2.0449,0,0,0,0,0,0,-2.0101,-2.011,-2.0195,-2.0159,-2.017,-2.0203,-2.0223,-2.0229,-2.0243,-2.0277,-2.0283,-2.0257,-2.0311,-2.0319,-2.0354,-2.0366,-2.0351,-2.0354,-2.0447,-2.0448,-2.0449,-2.0442,0,0,0,0,0,0,-2.0098,-2.0109,-2.0121,-2.0159,-2.0172,-2.0224,-2.0224,-2.023,-2.0249,-2.025,-2.0287,-2.0293,-2.0311,-2.0349,-2.0357,-2.037,-2.0356,-2.0446,-2.0447,-2.0448,-2.0441,-2.0442,-2.0444,0,0,0,0,0,-2.0094,-2.0115,-2.0121,-2.0131,-2.0187,-2.0224,-2.0232,-2.0252,-2.025,-2.0262,-2.0284,-2.0292,-2.0363,-2.0352,-2.0361,-2.0375,-2.0445,-2.0447,-2.0448,-2.044,-2.0442,-2.0444,0,0,0,0,0,0,-2.0077,-2.0121,-2.0128,-2.0163,-2.019,-2.0228,-2.0244,-2.0253,-2.0281,-2.0281,-2.0305,-2.0313,-2.0347,-2.0364,-2.0352,-2.0408,-2.0404,-2.0408,-2.0395,-2.0397,-2.0398,-2.0393,-2.0359,0,0,0,0,0,-2.0077,-2.0104,-2.0141,-2.0168,-2.0182,-2.021,-2.0227,-2.0241,-2.027,-2.0281,-2.0306,-2.0333,-2.0362,-2.0381,-2.0409,-2.0444,-2.0453,-2.0458,-2.0459,-2.046,-2.0463,-2.0485,-2.0488,-2.0454,-2.0454,-2.0454,0,0,-2.0078,-2.0105,-2.0121,-2.0166,-2.0188,-2.0216,-2.022,-2.0248,-2.0269,-2.0285,-2.0321,-2.034,-2.0372,-2.0408,-2.0425,-2.0424,-2.0475,-2.0462,-2.0463,-2.0465,-2.0487,-2.049,-2.0493,-2.0456,-2.0455,-2.0455,0,0,-2.0094,-2.0117,-2.0143,-2.0166,-2.0201,-2.0221,-2.0227,-2.0264,-2.0278,-2.0314,-2.0327,-2.0353,-2.0401,-2.0424,-2.0442,-2.047,-2.0479,-2.0479,-2.0485,-2.0507,-2.0509,-2.0512,-2.0523,-2.0527,-2.0481,-2.0481,-2.0481,0,-2.009,-2.0133,-2.0155,-2.0184,-2.0204,-2.0221,-2.0249,-2.027,-2.0312,-2.0325,-2.0324,-2.0387,-2.041,-2.0452,-2.0459,-2.0473,-2.0482,-2.0474,-2.0507,-2.051,-2.0512,-2.0524,-2.0528,-2.0481,-2.0481,-2.0481,-2.0481,0,-2.0128,-2.0157,-2.0174,-2.0216,-2.0238,-2.0265,-2.0293,-2.0312,-2.0325,-2.0344,-2.0382,-2.041,-2.0445,-2.0456,-2.0468,-2.0501,-2.05,-2.0502,-2.0499,-2.0515,-2.0526,-2.053,-2.0481,-2.0481,-2.0481,-2.0481,0,0,-2.0133,-2.0189,-2.0195,-2.0215,-2.0256,-2.0279,-2.0308,-2.0344,-2.0361,-2.039,-2.0415,-2.0458,-2.0461,-2.0482,-2.0496,-2.0515,-2.0537,-2.0515,-2.0517,-2.0519,-2.0577,-2.0576,-2.058,-2.0543,-2.0544,-2.0545,-2.0575,0,-2.0155,-2.0209,-2.0231,-2.0274,-2.0303,-2.0321,-2.0346,-2.0375,-2.0394,-2.0421,-2.0443,-2.0473,-2.0475,-2.0488,-2.0507,-2.053,-2.0549,-2.0528,-2.0568,-2.0569,-2.056,-2.0586,-2.0583,-2.0611,-2.0579,-2.058,-2.0581,0,-2.0188,-2.0218,-2.0265,-2.0305,-2.0317,-2.034,-2.0376,-2.0401,-2.0434,-2.0447,-2.0472,-2.0486,-2.0518,-2.0513,-2.0559,-2.0544,-2.0562,-2.0576,-2.0578,-2.0583,-2.0576,-2.0592,-2.062,-2.0624,-2.0587,-2.0587,-2.0586,0,-2.0189,-2.0242,-2.0277,-2.0293,-2.034,-2.0356,-2.0376,-2.0409,-2.0429,-2.0461,-2.0475,-2.0509,-2.0527,-2.0554,-2.0577,-2.0571,-2.0621,-2.0618,-2.0634,-2.0633,-2.0644,-2.0643,-2.0675,-2.0654,-2.0654,-2.0654,-2.0654,0,-2.0211,-2.0239,-2.0278,-2.03,-2.0332,-2.0358,-2.039,-2.0411,-2.044,-2.0467,-2.0484,-2.0509,-2.0539,-2.0567,-2.0586,-2.0622,-2.063,-2.0642,-2.0647,-2.0641,-2.0639,-2.0653,-2.0652,-2.0655,-2.0655,-2.0654,-2.0654,0,-2.0218,-2.0245,-2.0285,-2.0327,-2.0338,-2.036,-2.0396,-2.0418,-2.044,-2.0473,-2.0483,-2.0516,-2.0551,-2.0578,-2.0622,-2.0635,-2.0674,-2.0678,-2.0663,-2.0665,-2.0681,-2.0679,-2.0724,-2.0732,-2.0704,-2.0704,-2.0704,0,-2.023,-2.0253,-2.0298,-2.0317,-2.0338,-2.0369,-2.0391,-2.0417,-2.0439,-2.048,-2.0498,-2.0534,-2.0565,-2.062,-2.0648,-2.0684,-2.069,-2.0703,-2.0695,-2.0689,-2.0691,-2.069,-2.0693,-2.0704,-2.0704,-2.0704,-2.0704,0,-2.025,-2.0264,-2.0295,-2.0331,-2.0357,-2.0387,-2.0417,-2.0432,-2.0465,-2.0489,-2.0525,-2.0549,-2.0597,-2.0633,-2.0671,-2.0692,-2.0704,-2.0707,-2.0713,-2.0707,-2.0698,-2.0704,-2.0667,-2.0705,-2.0705,-2.0705,-2.0705,-2.0705,-2.0261,-2.0283,-2.0318,-2.0353,-2.0379,-2.0408,-2.0431,-2.0457,-2.0488,-2.0529,-2.0543,-2.0581,-2.0616,-2.0669,-2.069,-2.0721,-2.0721,-2.0729,-2.0731,-2.0733,-2.0733,-2.0693,-2.0728,-2.0728,-2.0728,-2.0728,-2.0728,0,-2.0283,-2.0308,-2.034,-2.0382,-2.041,-2.042,-2.0454,-2.0477,-2.051,-2.0542,-2.0572,-2.0616,-2.0652,-2.0684,-2.0722,-2.074,-2.0747,-2.0749,-2.0748,-2.0754,-2.073,-2.0722,-2.0744,-2.0744,-2.0744,-2.0744,-2.0744,-2.0744,-2.0298,-2.0336,-2.0353,-2.0405,-2.0429,-2.0467,-2.0486,-2.0513,-2.0539,-2.0587,-2.0617,-2.0638,-2.0671,-2.0711,-2.0745,-2.0754,-2.0768,-2.0769,-2.0779,-2.0757,-2.0755,-2.0753,-2.0746,-2.0771,-2.0772,-2.08,-2.08,-2.08]}]]